Zurück zum Katalog

STARLINK-30609

AktivKommunikationVLEO
NORAD 58085·PAYLOAD·🇺🇸 United States

Gestartet Oct 18, 2023 von Cape Canaveral Space Force Station

Loading…

Nächste Überflüge (nächste 24 Stunden)

TLE

AktuellSource: CelesTrak SupGP

Epoche: Sep 14, 2026, 14:23 UTC

1 58085C 23160L   26257.59979167 -.00000564  00000+0 -20444-4 0  2574
2 58085  42.9997  94.4927 0001488 257.9426 202.4452 15.27576090    11

Verfolge STARLINK-30609 in Echtzeit mit AllMySat

Download on the App Store